Greenville, ME

11:47 PM EST on December 14, 2017 (GMT -0500)
Greenville

Weather History for KGNR - April, 2013

Change the Weather History Date:

Monday, April 8, 2013

  Actual Average (KMLT) Record (KMLT)
Temperature  
Mean Temperature 36 °F -  
Max Temperature 42 °F 44 °F 63 °F (1945)
Min Temperature 30 °F 26 °F 10 °F (1995)
Degree Days  
Heating Degree Days 30    
Moisture  
Dew Point 29 °F    
Average Humidity 73    
Maximum Humidity 89    
Minimum Humidity 60    
Precipitation  
Precipitation 0.00 in - - ()
Sea Level Pressure  
Sea Level Pressure 30.00 in    
Wind  
Wind Speed 6 mph (NW)    
Max Wind Speed 14 mph    
Max Gust Speed 30 mph    
Averages and records for this station are not official NWS values.
T = Trace of Precipitation, MM = Missing Value Source: NWS Daily Summary

Daily Weather History Graph

Daily Weather History Graph

Search for Another Location

Airport or City:

Trip Planner

Search our weather history database for the weather conditions in past years. The results will help you decide how hot, cold, wet, or windy it might be!

Date:

Astronomy

Apr. 08, 2013 Rise Set
Actual Time 6:05 AM EDT 7:15 PM EDT
Civil Twilight 5:34 AM EDT 7:46 PM EDT
Nautical Twilight 4:58 AM EDT 8:22 PM EDT
Astronomical Twilight 4:19 AM EDT 9:01 PM EDT
Moon 4:58 AM EDT (4/8) 5:43 PM EDT (4/8)
Length of Visible Light 14h 11m
Length of Day
13h 10m
Waning Crescent, 3% of the Moon is Illuminated
Apr 8
Waning Crescent
Apr 10
New
Apr 18
First Quarter
Apr 25
Full
May 2
Last Quarter

Hourly Weather History & Observations

Time (EDT) Temp. Windchill Dew Point Humidity Pressure Visibility Wind Dir Wind Speed Gust Speed Precip Events Conditions
12:56 AM 35.1 °F 29.3 °F 32.0 °F 89% 29.86 in - South 6.9 mph - N/A   Unknown
1:56 AM 37.9 °F 32.7 °F 30.9 °F 76% 29.85 in - Variable 6.9 mph - N/A   Unknown
2:56 AM 37.0 °F 32.4 °F 30.9 °F 79% 29.84 in - SSW 5.8 mph - N/A   Unknown
3:56 AM 36.0 °F - 30.9 °F 82% 29.85 in - Calm Calm - N/A   Unknown
4:56 AM 37.9 °F - 30.9 °F 76% 29.87 in - Calm Calm - N/A   Unknown
5:56 AM 39.0 °F - 32.0 °F 76% 29.89 in - Calm Calm - N/A   Unknown
6:56 AM 37.9 °F 32.1 °F 32.0 °F 79% 29.92 in - WNW 8.1 mph - N/A   Unknown
7:56 AM 37.9 °F 32.7 °F 32.0 °F 79% 29.95 in - Variable 6.9 mph - N/A   Unknown
8:56 AM 37.0 °F 31.6 °F 32.0 °F 82% 29.97 in - Variable 6.9 mph 18.4 mph N/A   Unknown
9:56 AM 37.0 °F 30.4 °F 30.9 °F 79% 29.99 in - WNW 9.2 mph - N/A   Unknown
10:56 AM 39.0 °F 31.0 °F 30.0 °F 70% 30.00 in - NW 13.8 mph 29.9 mph N/A   Unknown
11:56 AM 39.0 °F 35.7 °F 30.0 °F 70% 30.03 in - Variable 4.6 mph 20.7 mph N/A   Unknown
12:56 PM 41.0 °F 35.2 °F 28.9 °F 62% 30.05 in - NW 9.2 mph 19.6 mph N/A   Unknown
1:56 PM 39.9 °F 33.4 °F 28.9 °F 65% 30.06 in - NW 10.4 mph 18.4 mph N/A   Unknown
2:56 PM 39.0 °F 31.8 °F 28.9 °F 67% 30.08 in - NW 11.5 mph 21.9 mph N/A   Unknown
3:56 PM 39.9 °F 34.5 °F 28.0 °F 63% 30.05 in - NW 8.1 mph - N/A   Unknown
4:56 PM 41.0 °F 35.2 °F 28.0 °F 60% 30.05 in - NNW 9.2 mph - N/A   Unknown
5:56 PM 39.9 °F 36.7 °F 27.0 °F 60% 30.09 in - NNW 4.6 mph - N/A   Unknown
6:56 PM 37.9 °F 35.5 °F 27.0 °F 65% 30.09 in - NNE 3.5 mph - N/A   Unknown
7:56 PM 34.0 °F 31.0 °F 26.1 °F 73% 30.10 in - NE 3.5 mph - N/A   Unknown
8:56 PM 30.9 °F 27.5 °F 25.0 °F 79% 30.11 in - NE 3.5 mph - N/A   Unknown
9:56 PM 35.1 °F - 27.0 °F 72% 30.12 in - Calm Calm - N/A   Unknown
10:56 PM 34.0 °F - 27.0 °F 75% 30.12 in - Calm Calm - N/A   Unknown
11:56 PM 34.0 °F - 27.0 °F 75% 30.12 in - Calm Calm - N/A   Unknown